Henrik Krøyer Holme

KL  EN  DA
ASIAQ
Weather Now GREENLAND SURVEY
Updated [WGT/WGST] Temperature [°C] Wind [m/s] Air pressure [hPa] Relative humidity [%] Precipitation [mm]
Present Wind chill Speed Max
31.08 18:000,1-6,810,0 ⇓13,0101481n/a
31.08 17:00-0,1-7,310,0 ⇓14,0101482n/a
31.08 16:000,1-7,111,0 ⇓14,0101480n/a
31.08 15:00-0,1-5,46,0 ⇓8,0101579n/a
31.08 14:00-0,3-5,96,0 ⇓8,0101577n/a
31.08 13:00-0,2-6,58,0 ⇓10,0101577n/a
31.08 12:00-0,6-7,08,0 ⇓10,0101577n/a
31.08 11:00-0,7-6,77,0 ⇓8,0101578n/a
31.08 10:00-0,8-7,07,0 ⇓9,0101481n/a
31.08 09:00-1,4-8,28,0 ⇓11,0101484n/a
31.08 08:00-0,8-7,07,0 ⇓9,0101480n/a
31.08 07:00-1,2-6,86,0 ⇓8,0101484n/a
31.08 06:00-1,1-8,09,0 ⇓12,0101481n/a
31.08 05:00-0,8-7,07,0 ⇓10,0101482n/a
31.08 04:00-1,1-7,68,0 ⇓10,0101384n/a
31.08 03:00-0,8-7,89,0 ⇓12,0101381n/a
31.08 02:00-0,6-7,69,0 ⇓12,0101382n/a
31.08 01:00-0,9-8,110,0 ⇓13,0101384n/a
31.08 00:00-1,0-8,19,0 ⇓12,0101385n/a
30.08 23:00-1,2-8,08,0 ⇓10,0101387n/a
30.08 22:00-0,8-7,07,0 ⇓10,0101287n/a
30.08 21:00-0,6-7,28,0 ⇓11,0101286n/a
30.08 20:00-0,5-7,610,0 ⇓12,0101286n/a
30.08 19:000,1-7,311,0 ⇓14,0101282n/a
30.08 18:000,4-6,911,0 ⇓14,0101181n/a
Position: (80.649444,-13.711944)

[Back]